Starlink 31367

decayed
NORAD ID: 59408 Int'l Des: 2024-064 Owner: SPXS Country: US Constellation: starlink
LEOCIRCULAR
Group

About Starlink 31367

Description loading...

Altitude History

Altitude vs Time

uPlot chart will show altitude changes over time

Two-Line Element Set

1 59408U 24064L 25052.42084350 .04468287 25994-1 10362-1 0 9994
2 59408 42.9868 28.1097 0017198 164.2762 333.0183 15.99269665 51157
Epoch: Feb 21, 2025 • Age: 8417 hours

Current Status

Position data unavailable
Launch Date Apr 5, 2024
Age 1.8 years
Decay Date Feb 22, 2025
Type internet

Technical Details

Classification Payload
Mass 730.00 kg
Dry Mass 700.00 kg
Total Mass 730.00 kg
Length 0.30 m
Diameter 4.10 m
Span 29.00 m
Shape Box + pan
Manufacturer SPXS
Bus Type Starlink V2M
Phase Status Reentered
Owner/State SPXS/US

Large Constellations

Loading constellations...